Simultaneous Nadir Overpasses (SNOs) Predictions

Prediction of SNOs between GOES-15 and TERRA Satellite Orbit:

Table of predicted SNOs for the next 14.0 days since TLE Epoch: 8/26/2017
Index Date Time (GOES-15) GOES-15 Lat,Lon TERRA Lat,Lon Distance(km) Time Diff (sec)
1 08/26/2017 07:34:44 0.23,-135.03 -0.08,-136.41 157.19 80
2 08/28/2017 07:25:13 0.22,-135.03 0.55,-133.46 179.03 80
3 08/28/2017 19:43:50 -0.25,-135.11 0.47,-138.63 400.02 80
4 08/30/2017 19:31:38 -0.24,-135.10 -0.10,-135.67 64.38 80
5 09/01/2017 19:22:07 -0.23,-135.09 -0.73,-132.71 270.56 80
6 09/02/2017 07:43:31 0.26,-135.02 -0.38,-137.90 328.01 80
7 09/04/2017 07:28:40 0.25,-135.00 0.26,-134.95 6.09 80
8 09/06/2017 07:18:03 0.25,-134.98 0.90,-132.00 339.63 14
9 09/06/2017 19:37:45 -0.27,-135.04 0.19,-137.16 241.36 80
10 09/08/2017 19:28:14 -0.27,-135.01 -0.46,-134.21 91.60 80




NCC Satellite Simultaneous Nadir Overpasses (SNOs) Prediction Service
